Location: Crescent
(42.8242°N, 73.7329°W)
Time: 17:18:31
(UTC+00:00)

Vanguard 1 Rocket - Pass Details

Date: 21 February 2026
Orbit: 653 x 4214 km, 34.3° (Epoch: 8 March)

Event Time Altitude Azimuth Distance (km) Brightness Sun altitude
Rises 17:38:17 0° 237° (WSW) 3,847 11.1 36.4°
Reaches altitude 10° 17:40:32 10° 230° (SW) 3,161 10.9 36.3°
Maximum altitude 17:48:12 48° 158° (SSE) 2,249 10.7 36.0°
Drops below altitude 10° 18:02:46 10° 92° (E) 5,831 11.5 35.4°
Sets 18:08:41 0° 88° (E) 7,392 11.9 35.1°
